Weather History for Debrecen, Hungary

Change the Weather History Date:

Tuesday, October 25, 2011

  Actual Average Record
Temperature  
Mean Temperature 53 °F -  
Max Temperature 61 °F 50 °F - ()
Min Temperature 45 °F 35 °F - ()
Degree Days  
Heating Degree Days 12    
Growing Degree Days 3 (Base 50)    
Moisture  
Dew Point 43 °F    
Average Humidity 73    
Maximum Humidity 100    
Minimum Humidity 38    
Precipitation  
Precipitation 0.00 in 0.06 in - ()
Sea Level Pressure  
Sea Level Pressure 30.19 in    
Wind  
Wind Speed 4 mph ()    
Max Wind Speed 8 mph    
Max Gust Speed -    
Visibility 6.0 miles    
Events Rain    
T = Trace of Precipitation, MM = Missing Value Source: Averaged Metar Reports

Daily Weather History Graph

Daily Weather History Graph

Search for Another Location

Airport:

Trip Planner

Search our weather history database for the weather conditions in past years. The results will help you decide how hot, cold, wet, or windy it might be!

Date:

Astronomy

Oct. 25, 2011 Rise Set
Actual Time 7:05 AM CEST 5:28 PM CEST
Civil Twilight 6:34 AM CEST 6:00 PM CEST
Nautical Twilight 5:58 AM CEST 6:35 PM CEST
Astronomical Twilight 5:22 AM CEST 7:11 PM CEST
Moon 5:11 AM CEST (10/25) 4:20 PM CEST (10/25)
Length of Visible Light 11h 25m
Length of Day
10h 22m
Waning Crescent, 3% of the Moon is Illuminated
Oct 25
Waning Crescent
Oct 26
New
Nov 2
First Quarter
Nov 10
Full
Nov 18
Last Quarter

Hourly Weather History & Observations

Time (CEST) Temp. Windchill Dew Point Humidity Pressure Visibility Wind Dir Wind Speed Gust Speed Precip Events Conditions
12:45 AM 48.2 °F - 46.4 °F 93% 30.21 in 6.2 mi SE 1.2 mph - N/A   Overcast
1:45 AM 48.2 °F - 46.4 °F 93% 30.21 in 6.2 mi Calm Calm - N/A Rain Light Rain
2:00 AM 47 °F - 46 °F 97% 30.22 in 6 mi Calm Calm - - Rain Light Rain
2:45 AM 48.2 °F - 46.4 °F 93% 30.21 in 3.7 mi ENE 3.5 mph - N/A Rain Light Rain
3:45 AM 48.2 °F - 46.4 °F 93% 30.21 in 3.7 mi East 5.8 mph - N/A   Mostly Cloudy
4:45 AM 46.4 °F 42.9 °F 46.4 °F 100% 30.18 in 3.7 mi East 6.9 mph - N/A   Mostly Cloudy
5:45 AM 46.4 °F 43.5 °F 46.4 °F 100% 30.21 in 3.7 mi ENE 5.8 mph - N/A   Mostly Cloudy
6:15 AM 46.4 °F 43.5 °F 46.4 °F 100% 30.21 in 3.7 mi East 5.8 mph - N/A   Mostly Cloudy
6:45 AM 46.4 °F 42.9 °F 44.6 °F 93% 30.18 in 3.7 mi East 6.9 mph - N/A   Mostly Cloudy
7:00 AM - - - N/A% - 3.7 mi East 8.1 mph - N/A   Overcast
7:15 AM 46.4 °F 43.5 °F 42.8 °F 87% 30.21 in 3.7 mi East 5.8 mph - N/A   Mostly Cloudy
7:45 AM 46.4 °F 44.3 °F 42.8 °F 87% 30.21 in 5.0 mi ENE 4.6 mph - N/A   Scattered Clouds
8:00 AM 46 °F - 43 °F 86% 30.21 in 5 mi ENE 4.5 mph - -   Partly Cloudy
8:15 AM 46.4 °F 43.5 °F 42.8 °F 87% 30.21 in 6.2 mi East 5.8 mph - N/A   Scattered Clouds
8:45 AM 46.4 °F 42.9 °F 42.8 °F 87% 30.21 in 6.2 mi East 6.9 mph - N/A   Mostly Cloudy
9:15 AM 48.2 °F - 42.8 °F 82% 30.21 in 6.2 mi East 8.1 mph - N/A   Scattered Clouds
9:45 AM 50.0 °F - 42.8 °F 76% 30.21 in - East 6.9 mph - N/A   Clear
10:00 AM - - - N/A% - - East 8.1 mph - N/A   Clear
10:15 AM 51.8 °F - 42.8 °F 71% 30.21 in 6.2 mi East 5.8 mph - N/A   Mostly Cloudy
10:45 AM 53.6 °F - 42.8 °F 67% 30.21 in 6.2 mi East 5.8 mph - N/A   Mostly Cloudy
11:15 AM 55.4 °F - 44.6 °F 67% 30.21 in 6.2 mi East 5.8 mph - N/A   Scattered Clouds
11:45 AM 55.4 °F - 44.6 °F 67% 30.21 in - ESE 5.8 mph - N/A   Clear
12:15 PM 55.4 °F - 44.6 °F 67% 30.21 in - ESE 5.8 mph - N/A   Clear
12:45 PM 59.0 °F - 44.6 °F 59% 30.18 in - ESE 4.6 mph - N/A   Clear
1:00 PM - - - N/A% - - East 5.8 mph - N/A   Clear
1:15 PM 60.8 °F - 42.8 °F 52% 30.18 in - SE 3.5 mph - N/A   Clear
1:45 PM 60.8 °F - 42.8 °F 52% 30.18 in 6.2 mi SSE 4.6 mph - N/A   Scattered Clouds
2:00 PM 61 °F - 42 °F 38% 30.18 in 19 mi SSE 4.5 mph - -   Partly Cloudy
2:15 PM 60.8 °F - 42.8 °F 52% 30.18 in 6.2 mi SE 5.8 mph - N/A   Scattered Clouds
2:45 PM 60.8 °F - 42.8 °F 52% 30.18 in 6.2 mi ESE 8.1 mph - N/A   Mostly Cloudy
3:15 PM 60.8 °F - 41.0 °F 48% 30.18 in - SE 5.8 mph - N/A   Clear
3:45 PM 60.8 °F - 42.8 °F 52% 30.18 in - SE 5.8 mph - N/A   Clear
4:15 PM 59.0 °F - 42.8 °F 55% 30.15 in - ESE 5.8 mph - N/A   Clear
4:45 PM 57.2 °F - 42.8 °F 59% 30.15 in - East 6.9 mph - N/A   Clear
5:15 PM 57.2 °F - 42.8 °F 59% 30.15 in - East 5.8 mph - N/A   Clear
5:45 PM 55.4 °F - 42.8 °F 63% 30.18 in - East 4.6 mph - N/A   Clear
6:15 PM 53.6 °F - 42.8 °F 67% 30.18 in - East 4.6 mph - N/A   Clear
6:45 PM 53.6 °F - 42.8 °F 67% 30.18 in - East 4.6 mph - N/A   Clear
7:15 PM 51.8 °F - 41.0 °F 67% 30.18 in - ENE 5.8 mph - N/A   Clear
7:45 PM 48.2 °F - 41.0 °F 76% 30.18 in - ENE 6.9 mph - N/A   Clear
8:00 PM 49 °F - 42 °F 67% 30.19 in 11 mi ENE 6.7 mph - -   Partly Cloudy
8:15 PM 50.0 °F - 41.0 °F 71% 30.18 in - East 8.1 mph - N/A   Clear
8:45 PM 51.8 °F - 41.0 °F 67% 30.18 in 6.2 mi East 6.9 mph - N/A   Overcast
9:15 PM 50.0 °F - 41.0 °F 71% 30.18 in 6.2 mi East 4.6 mph - N/A   Overcast
9:45 PM 50.0 °F - 41.0 °F 71% 30.18 in 6.2 mi East 5.8 mph - N/A   Overcast
10:45 PM 50.0 °F - 41.0 °F 71% 30.21 in 6.2 mi East 5.8 mph - N/A   Overcast
11:45 PM 50.0 °F - 41.0 °F 71% 30.21 in 6.2 mi East 3.5 mph - N/A   Overcast